Regional Weather Roundup
Issued by NWS Wakefield, VA

Home | Current Version | Previous Version | Graphics & Text | Print | Product List | Glossary On
Versions: 1 2 3 4 5 6 7 8 9 10 11 12 13 14 15 16 17 18 19 20 21 22 23 24 25 26 27 28
000
ASUS41 KAKQ 260515
RWRAKQ

REGIONAL WEATHER ROUNDUP
NATIONAL WEATHER SERVICE WAKEFIELD VA
100 AM EDT FRI MAY 26 2017

Note: "fair" indicates few or no clouds below 12,000 feet with no
significant weather and/or obstructions to visibility. * = Denotes
station may not report precipitation (e.g., rain,snow,etc.),
thunder or fog.

VAZ042-051-052>054-056-260600-
NORTHERN VIRGINIA

CITY           SKY/WX    TMP DP  RH WIND       PRES   REMARKS
WASH NATIONAL  PTCLDY    60  59  96 SW7       29.57R
DULLES         PTCLDY    56  54  93 S3        29.58R
FORT BELVOIR   CLEAR     58  56  92 W3        29.58R
QUANTICO       PTCLDY    59  58  96 NW3       29.60R
FREDERICKSBRG* CLEAR     57  57 100 SW3       29.59R
STAFFORD*      CLEAR     55  55 100 CALM      29.64R
WARRENTON      CLEAR     56  53  91 CALM      29.59S
CULPEPER*      PTCLDY    54  54 100 CALM      29.61R FOG
MANASSAS*      CLEAR     55  54  94 SE3       29.59R FOG
LEESBURG*      CLEAR     57  57 100 W10       29.59R
WINCHESTER     CLOUDY    54  52  94 SE3       29.60R
FRONT ROYAL*   CLOUDY    54  54 100 S5        29.60R
LURAY*         MOCLDY    54  54 100 SE3         N/A  FOG
$$

VAZ048-049-060>072-079>083-260600-
CENTRAL AND SOUTH CENTRAL VIRGINIA

CITY           SKY/WX    TMP DP  RH WIND       PRES   REMARKS
RICHMOND       PTCLDY    60  54  80 SW12      29.63R
CHESTERFIELD*  NOT AVBL
PETERSBURG*    CLEAR     58  53  84 SW10      29.66R
HANOVER        CLEAR     60  52  74 SW7       29.63R
TAPPAHANNOCK*  CLEAR     60  52  74 SW8       29.61R
QUINTON*       FAIR      60  56  87 W5        29.62R
CHARLOTTSVILLE PTCLDY    62  53  72 SW6       29.62R
GORDONSVILLE*  PTCLDY    57  54  88 SW3       29.61R
ORANGE*        MOCLDY    54  54 100 CALM      29.60S
LOUISA*        CLEAR     61  55  82 SW3       29.62R
BUMPASS*       FAIR      55  55  97 SW5       29.61R
FARMVILLE*     CLEAR     60  52  73 SW6       29.65R
CREWE*         FAIR      58  55  87 W7        29.66R
FORT PICKETT*  FAIR      57  54  88 SW6       29.67R
CHASE CITY*    MOCLDY    59  56  91 W3        29.70R
CLARKSVILLE*   FAIR      59  54  82 SW7       29.71R
SOUTH HILL*    CLEAR     60  55  84 SW10      29.75R
LAWRENCEVILLE* FAIR      59  54  84 SW8       29.68R
EMPORIA*       CLEAR     59  54  82 SW7       29.70R
$$

VAZ088>098-260600-
SOUTHEAST VIRGINIA

CITY           SKY/WX    TMP DP  RH WIND       PRES   REMARKS
NORFOLK        MOCLDY    64  56  75 SW14      29.64R
VIRGINIA BEACH MOCLDY    61  55  81 SW10      29.64R
NORFOLK NAVAL  NOT AVBL
WEST POINT*    CLEAR     61  55  82 SW8       29.63R
SALUDA*        FAIR      60  57  91 SW6       29.61R
NEWPORT NEWS   CLEAR     62  55  77 SW12      29.63R
LANGLEY AFB    PTCLDY    63  55  75 W9        29.63R
FORT EUSTIS    CLEAR     61  55  80 SW6       29.61R
WILLIAMSBURG*  CLEAR     63  55  77 W9        29.64S
HR EXEC AP*    FAIR      61  55  82 W7        29.65R
FRANKLIN*      CLEAR     62  56  80 SW7       29.67R
US460-WAKEFLD  CLEAR     60  56  86 SW8       29.65R
$$

VAZ020-022-025-037-045-260600-
WEST CENTRAL AND SOUTHWEST VIRGINIA

CITY           SKY/WX    TMP DP  RH WIND       PRES   REMARKS
STAUNTON*      PTCLDY    54  51  89 CALM      29.66R
WAYNESBORO*    MOCLDY    57  53  86 SW8       29.64S
HOT SPRINGS VA RAIN      52  50  93 W23G32    29.71R VSB<1/4
LYNCHBURG      PTCLDY    58  53  84 S5        29.69R
DANVILLE       CLEAR     60  54  80 SW12      29.73R
SOUTH BOSTON*  FAIR      58  54  85 SW5       29.71R
MARTINSVILLE   PTCLDY    58  52  81 W3        29.78R
ROANOKE        CLOUDY    63  54  72 W7        29.72R
BLACKSBURG     CLOUDY    59  52  78 W12G20    29.77R
DUBLIN*        CLOUDY    60  49  66 W17G33    29.78R
MARION*        CLOUDY    56  53  90 W15G23    29.84R
HILLSVILLE*    CLOUDY    56  48  73 W14G20    29.80R
RICHLANDS*     CLOUDY    55  25  31 W10G20    29.86R
WISE*          MOCLDY    55  55 100 W7        29.88S
ABINGDON*      CLOUDY    57  57 100 W7        29.87R
$$

MDZ021>025-VAZ099-100-260600-
SOUTHERN MARYLAND AND THE DELMARVA PENINSULA

CITY           SKY/WX    TMP DP  RH WIND       PRES   REMARKS
PATUXENT RIVER CLEAR     60  60 100 W9        29.57R
BAY BRIDGE APT PTCLDY    61  57  88 W9        29.54S
LEONARDTOWN    CLEAR     59  55  88 W5        29.60R
DOVER          CLOUDY    60  60 100 SW10      29.50R
GEORGETOWN     CLOUDY    62  58  86 SW9       29.54R
EASTON         PTCLDY    61  58  90 W6        29.59R
CAMBRIDGE      CLEAR     61  57  88 W7        29.57R
SALISBURY      PTCLDY    61  60  97 W9        29.56R
OCEAN CITY     CLOUDY    62  59  90 W15G21    29.56R
WALLOPS ISLAND CLEAR     63  58  83 W14G21    29.58R
ACCOMACK*      CLEAR     64  12  13 W15G21    29.61R
$$

NCZ012>017-030>032-260600-
NORTH CENTRAL AND EASTERN NORTH CAROLINA

CITY           SKY/WX    TMP DP  RH WIND       PRES   REMARKS
ROANOKE RAPIDS FAIR      61  55  82 SW12      29.70R
RALEIGH        PTCLDY    60  54  80 SW9       29.76R
ELIZABETH CITY CLOUDY    67  58  72 SW14G23   29.68S
AHOSKIE*         N/A     60  57  91 CALM      29.70R
EDENTON*       CLOUDY    69  60  73 SW10G17   29.71R
CURRITUCK*     CLOUDY    66  58  74 SW12      29.68S
KILL DEVIL HLS CLOUDY    67  59  75 SW8G17    29.69R
MANTEO         CLOUDY    66  60  81 SW17      29.71S
CAPE HATTERAS  CLEAR     72  55  55 W22G35    29.75R
TARBORO*       NOT AVBL
GOLDSBORO      CLEAR     66  56  70 SW12      29.76R
WASHINGTON     CLEAR     64  56  74 SW12      29.74R
GREENVILLE     CLEAR     64  55  72 SW9       29.77R
NEW BERN       CLEAR     66  55  67 SW12G21   29.79R
WILMINGTON     CLEAR     67  54  63 SW13      29.83R
$$

VAZ048-260600-
ELSEWHERE

CITY           SKY/WX    TMP DP  RH WIND       PRES   REMARKS
HARRISBURG PA  PTCLDY    59  57  93 NW12      29.51S
BALTIMORE      MOCLDY    58  58 100 SW7       29.54S
ANNAPOLIS      CLOUDY    61  60  97 W6        29.54R
ANDREWS AFB    CLEAR     58  57  97 SW5       29.56R
PHILADELPHIA   DRIZZLE   58  56  93 S7        29.50R FOG
HENDERSON NC   CLEAR     57  50  78 SW7       29.73R
GREENSBORO     PTCLDY    60  52  74 W8        29.76R
ROCKY MOUNT    CLEAR     64  54  69 SW8G18    29.74R
$$

VAZ100-260600-
MARINE

STATION/POSITION TIME  TEMP    WIND        PRES    WAVE   SWELL
                       AIR SEA DIR/SP/G            HT/PER HT/PER
                 (UTC) (F)     (DEG/KT/KT) (MB)    (FT/S) (FT/S)
CAPE MAY NJ      0448   61 62  250/  6/  7  999.1R
LEWES DE         0448   61 62  240/  5/  7  999.7R
15NM E FENWICK I 0450   61 57  220/ 14/ 16 1000.6R   5/ 7   3/ 7
OCEAN-CITY-INLET 0448   62 60  270/ 12/ 16 1000.9R
WACHAPREAGUE VA  0448   64 67  230/  8/ 21 1002.0R
THOMAS POINT MD  0500   60 65  260/ 13/ 14   N/A
GOOSES REEF MD   0500   61 62  290/ 12/ 14 1001.9    1/ 2
COVE POINT MD    0448   60     290/  8/ 12 1001.8R
SOLOMONS ISLAND  0448   61 67  270/  5/  7   N/A
BISHOPS HEAD MD  0448   65 68  250/ 20/ 23 1001.7R
PINEY POINT MD   0448          280/ 12/ 14   N/A
POTOMAC MD       0500   63 66  260/ 16/ 19 1000.8    2/ 3
CAMBRIDGE MD     0442   60 68                N/A
LEWISETTA VA     0448   62 68  260/ 10/ 14 1001.5R
RAPPAHANNOCK LGT 0448          240/ 23/ 27 1002.7R
STINGRAY PT      0450   64     270/ 17/ 21 1001.6R
YORK RVR RNG VA  0448   64     260/ 18/ 20 1002.3R
YORKTOWN VA      0448   63 69  240/ 11/ 14 1002.8R
JAMESTOWN VA     0500   62 71  230/ 10/ 14   N/A     0
DOMINION TERM VA 0448   66     250/ 15/ 19 1003.6R
KIPTOPEKE VA     0448      66  250/ 19/ 22   N/A
CHES BAY BRIDGE  0448   65 65  240/ 19/ 21 1003.1R
CAPE HENRY VA    0448   62     220/  7/ 12   N/A
WILLOUBY STN VA  0448   66     230/ 22/ 26 1002.8R
S CRANEY ISL VA  0448   63     230/  9/ 12 1003.6R
CAPE HENRY BUOY  0442      62                N/A     4/11   2/11
1ST LANDING BUOY 0500   65 65              1003.5    2/ 3
CAPE CHARLES BUO 0451      61                N/A     4/ 4
64NM E OF VA BCH 0450   65 63  240/ 19/ 21 1004.7R   7/ 8   5/ 8
DUCK PIER NC     0448   69 62  230/ 16/ 21 1004.7F
44100 DUCK FRF   0435      63                N/A     5/10   2/11
44056 DUCK FRF   0430      63                N/A     2/ 8
OREGON INLET NC  0436   70 71  230/ 21/ 25 1005.7R
HATTERAS NC      0448   71 74  240/ 20/ 26 1007.2R
DIAMOND SHLS NC  0450   74 78  250/ 27/ 35 1007.1R   9/ 8
CAPE LOOKOUT NC  0500   72     250/ 21/ 26 1008.6R
$$




USA.gov is the U.S. government's official web portal to all federal, state and local government web resources and services.